MACSAT 2 (M 2) 1 20608U 90043B 12137.20324469 .00000667 00000-0 94401-4 0 6422 2 20608 89.7466 47.4496 0095640 102.9926 258.1999 14.72708532179891 TUBSAT A 1 21577U 91050D 12137.18393910 .00000398 00000-0 14416-3 0 3662 2 21577 98.6074 93.1256 0007173 109.6246 250.5721 14.38751240 93188 S80/T 1 22078U 92052C 12135.77037388 -.00000037 00000-0 10000-3 0 1652 2 22078 66.0856 253.6261 0009352 200.8711 159.1910 12.86748120928458 HEALTHSAT 1 1 22827U 93061E 12137.23803699 .00000318 00000-0 13885-3 0 1299 2 22827 98.5671 82.9071 0008752 345.9930 14.1019 14.30431757972325 TUBSAT B 1 22970U 94003B 12135.49091832 .00000051 00000-0 10000-3 0 8870 2 22970 82.5587 119.9055 0017226 109.3663 250.9263 13.16927169879807 CERISE 1 23606U 95033B 12136.87197988 .00002356 00000-0 26950-3 0 7525 2 23606 98.3590 318.2855 0004714 261.1268 98.9415 14.87040774909788 UPM/LBSAT 1 23607U 95033C 12137.19753046 .00000504 00000-0 81868-4 0 9755 2 23607 98.1947 249.3871 0007064 95.6322 264.5682 14.75515539905895 FAISAT 2V 1 24954U 97052B 12136.80192363 .00000081 00000-0 63558-4 0 4638 2 24954 82.9205 239.0047 0040433 23.2188 337.0780 13.79735320737336 MUBLCOM 1 25736U 99026B 12136.59753659 .00000702 00000-0 20996-3 0 6222 2 25736 97.6909 349.5591 0006186 32.6414 327.5155 14.45472011684355 RUBIN-3 & SL-8 R/B 1 27561U 02054C 12137.05305701 .00000236 00000-0 65323-4 0 5885 2 27561 97.9975 294.7396 0047574 173.4332 186.7486 14.54160341502094 APRIZESAT 2 1 28366U 04025A 12135.92190287 .00000179 00000-0 71829-4 0 1941 2 28366 98.2163 89.4741 0108451 215.1757 144.2235 14.35835927412719 SAUDICOMSAT 1 1 28369U 04025D 12137.00164652 .00000324 00000-0 91915-4 0 2460 2 28369 97.9621 135.3609 0034489 5.7778 354.3791 14.51008071417194 SAUDICOMSAT 2 1 28370U 04025E 12137.04532888 .00000393 00000-0 11922-3 0 2472 2 28370 98.0508 118.3854 0059941 67.3681 293.3875 14.46093103415795 APRIZESAT 1 1 28372U 04025G 12136.02864130 .00000245 00000-0 75624-4 0 2318 2 28372 98.0065 124.9192 0047949 38.9543 321.5081 14.48471352416331 NANOSAT-1 1 28493U 04049B 12136.88511237 .00000529 00000-0 94558-4 0 2388 2 28493 98.3803 136.5208 0005485 125.7160 234.4545 14.71109683397497 SAUDICOMSAT 7 1 31119U 07012C 12136.76732890 .00000391 00000-0 88724-4 0 5408 2 31119 97.8495 166.5139 0062040 157.6212 202.7702 14.59903370270646 SAUDICOMSAT 6 1 31121U 07012E 12137.04080194 .00000370 00000-0 89075-4 0 5391 2 31121 97.8572 157.6678 0078341 184.8827 175.1622 14.56750104270117 SAUDICOMSAT 5 1 31124U 07012H 12136.53563452 .00000405 00000-0 89121-4 0 5458 2 31124 97.8485 171.4391 0053697 144.5681 215.9118 14.61515566270904 SAUDICOMSAT 3 1 31125U 07012J 12137.04096248 .00000417 00000-0 88749-4 0 5593 2 31125 97.8517 176.8372 0045791 130.1394 230.3836 14.63076839271262 SAUDICOMSAT 4 1 31127U 07012L 12136.11109154 .00000385 00000-0 89803-4 0 5465 2 31127 97.8516 161.6059 0070020 173.1618 187.0557 14.58419372270271 APRIZESAT 4 1 35684U 09041D 12136.76090495 .00000362 00000-0 58596-4 0 8798 2 35684 98.0641 47.7369 0048865 322.1983 37.5805 14.76664978150632 APRIZESAT 3 1 35686U 09041F 12136.70633657 .00000900 00000-0 11121-3 0 8887 2 35686 98.0894 59.2633 0077337 293.3860 65.9295 14.83441280151293 AISSAT 1 1 36797U 10035C 12137.13143387 .00000985 00000-0 13247-3 0 9773 2 36797 98.0623 213.3873 0010928 284.7748 75.2254 14.81509229 99744